Date,TemperatureHighF,TemperatureAvgF,TemperatureLowF,DewpointHighF,DewpointAvgF,DewpointLowF,HumidityHigh,HumidityAvg,HumidityLow,PressureMaxIn,PressureMinIn,WindSpeedMaxMPH,WindSpeedAvgMPH,GustSpeedMaxMPH,PrecipitationSumIn
2013-1-1,76.0,74.9,74.0,70.0,68.6,66.0,86,81,74,30.14,30.02,17,11,20,0.00
2013-1-2,80.0,75.1,73.0,72.0,70.6,69.0,92,86,77,30.08,29.99,10,6,12,0.00
2013-1-3,79.0,75.3,73.0,74.0,71.7,69.0,95,88,83,30.11,30.02,10,7,11,0.00
2013-1-4,78.0,75.3,74.0,75.0,73.0,72.0,95,93,88,30.19,30.09,9,6,11,0.00
2013-1-5,77.0,75.2,73.0,74.0,72.4,71.0,95,91,87,30.20,30.11,17,11,23,0.01
2013-1-6,79.0,77.0,76.0,74.0,72.9,72.0,92,88,84,30.15,30.03,20,14,23,0.00
2013-1-7,79.0,77.9,74.0,73.0,72.1,71.0,91,83,79,30.12,30.04,6,2,9,0.00
2013-1-8,80.0,78.4,77.0,76.0,73.7,72.0,89,86,81,30.16,30.07,26,12,29,0.01
2013-1-9,79.0,77.9,77.0,74.0,73.0,72.0,87,85,81,30.22,30.11,30,22,34,0.01
2013-1-10,78.0,77.1,77.0,73.0,72.0,71.0,85,84,83,30.21,30.19,31,27,37,0.00
2013-1-13,77.0,76.4,76.0,68.0,66.0,64.0,74,70,67,30.09,30.06,23,16,30,0.00
2013-1-14,77.0,75.9,75.0,69.0,66.3,63.0,78,72,66,30.13,30.07,22,17,28,0.00
2013-1-16,78.0,76.8,76.0,72.0,71.2,70.0,86,83,78,30.04,29.99,12,10,16,0.00
2013-1-19,74.0,71.2,68.0,69.0,66.0,64.0,89,84,76,30.19,30.07,12,7,14,0.00
2013-1-20,75.0,72.3,69.0,71.0,69.1,67.0,94,89,83,30.13,29.99,12,7,15,0.00
2013-1-21,79.0,73.4,70.0,72.0,69.0,65.0,92,86,77,30.06,29.98,13,7,22,0.00
2013-1-22,74.0,70.0,67.0,65.0,63.1,61.0,89,79,68,30.17,30.01,26,14,30,0.00
2013-1-23,72.0,69.2,66.0,63.0,61.4,60.0,84,76,66,30.25,30.14,25,19,30,0.00
2013-1-24,72.0,68.6,65.0,65.0,61.7,60.0,86,79,67,30.27,30.16,24,16,30,0.00
2013-1-25,73.0,69.8,67.0,65.0,61.1,59.0,82,74,63,30.25,30.15,21,15,25,0.00
2013-1-26,73.0,70.3,66.0,68.0,64.9,61.0,87,83,74,30.21,30.13,23,14,26,0.00
2013-1-27,75.0,73.2,71.0,70.0,68.5,67.0,92,86,79,30.22,30.14,31,17,35,0.00
2013-1-28,76.0,74.7,74.0,69.0,67.6,66.0,83,79,76,30.27,30.19,31,24,35,0.00
2013-1-29,77.0,75.9,75.0,71.0,69.9,68.0,85,82,77,30.19,30.09,25,20,29,0.00
2013-1-30,77.0,75.3,75.0,73.0,68.9,67.0,89,81,74,30.10,29.98,23,17,28,0.00
2013-1-31,77.0,71.2,68.0,74.0,66.5,59.0,90,85,72,30.15,29.99,20,12,26,0.00
2013-2-1,70.0,64.3,59.0,61.0,55.9,52.0,80,74,69,30.21,30.12,30,22,33,0.00
2013-2-2,72.0,67.5,63.0,63.0,59.7,54.0,86,76,63,30.21,30.09,24,16,28,0.00
2013-2-3,69.0,67.3,65.0,63.0,61.2,58.0,85,81,78,30.15,30.04,20,12,24,0.00
2013-2-4,71.0,69.1,64.0,60.0,56.7,52.0,71,65,60,30.10,30.01,16,12,22,0.00
2013-2-5,75.0,71.9,68.0,68.0,64.8,59.0,85,78,68,30.06,29.98,14,9,16,0.00
2013-2-6,76.0,74.0,71.0,70.0,68.1,65.0,92,82,74,30.07,29.99,21,11,25,0.00
2013-2-7,78.0,74.7,73.0,70.0,68.1,66.0,86,80,74,30.06,29.94,19,10,22,0.00
2013-2-8,80.0,75.6,72.0,74.0,71.4,67.0,93,86,74,30.03,29.92,11,7,19,0.00
2013-2-9,76.0,72.7,69.0,71.0,67.2,63.0,90,83,76,30.12,30.01,27,16,31,0.00
2013-2-10,75.0,74.6,74.0,68.0,66.8,65.0,80,77,71,30.20,30.10,27,23,30,0.00
2013-2-11,76.0,75.0,74.0,70.0,69.2,67.0,85,82,79,30.18,30.09,26,18,31,0.00
2013-2-12,80.0,76.6,75.0,74.0,71.1,69.0,86,83,80,30.10,30.01,21,14,24,0.00
2013-2-14,72.0,68.4,67.0,69.0,66.9,66.0,96,94,88,29.98,29.96,31,25,40,0.00
2013-2-15,74.0,70.0,67.0,71.0,68.1,65.0,98,94,88,30.00,29.91,24,12,30,0.01
2013-2-16,72.0,68.3,65.0,69.0,62.4,54.0,98,83,63,30.06,29.86,25,13,38,0.56
2013-2-17,64.0,56.7,52.0,56.0,43.2,36.0,79,61,47,30.27,30.07,37,20,44,0.03
2013-2-18,62.0,55.9,54.0,55.0,46.1,38.0,81,70,53,30.27,30.22,25,20,31,0.00
2013-2-23,80.0,78.0,76.0,76.0,74.3,73.0,95,89,84,30.00,29.92,14,7,18,0.00
2013-2-24,82.0,77.8,75.0,77.0,74.9,74.0,96,91,82,29.99,29.92,7,4,10,0.00
2013-2-27,77.0,74.5,74.0,73.0,71.3,70.0,91,90,87,29.95,29.93,13,6,19,0.00
2013-2-28,74.0,70.5,66.0,71.0,59.9,50.0,92,71,46,30.00,29.90,20,10,25,0.05
2013-3-1,70.0,66.4,62.0,62.0,58.8,55.0,88,77,67,29.97,29.90,24,10,27,0.01
2013-3-2,65.0,61.0,58.0,57.0,51.3,47.0,82,71,59,30.03,29.94,25,14,32,0.01
2013-3-3,62.0,59.0,53.0,52.0,50.2,46.0,89,73,59,30.13,29.93,24,11,32,0.00
2013-3-4,64.0,57.6,52.0,53.0,48.9,45.0,82,73,59,30.22,30.10,24,11,28,0.00
2013-3-5,71.0,66.6,60.0,62.0,57.0,51.0,83,72,63,30.15,30.07,14,8,19,0.00
2013-3-6,75.0,68.0,63.0,65.0,59.9,51.0,88,76,63,30.11,30.02,18,9,29,0.00
2013-3-7,63.0,59.6,55.0,54.0,48.3,43.0,81,67,52,30.19,30.08,25,12,34,0.00
2013-3-8,71.0,64.5,59.0,63.0,57.7,53.0,87,79,68,30.18,30.10,19,10,21,0.00
2013-3-9,74.0,68.0,64.0,65.0,60.8,56.0,87,78,71,30.16,30.08,23,12,27,0.00
2013-3-10,72.0,70.3,68.0,64.0,60.5,58.0,76,71,66,30.12,30.02,29,20,31,0.00
2013-3-11,75.0,72.5,71.0,68.0,64.7,61.0,82,77,69,30.06,29.92,27,16,31,0.00
2013-3-12,76.0,73.7,73.0,70.0,68.5,66.0,88,84,79,29.99,29.89,23,16,28,0.00
2013-3-13,72.0,70.2,69.0,61.0,58.7,56.0,76,68,57,30.11,30.09,14,10,20,0.00
2013-3-14,71.0,67.2,61.0,62.0,52.8,45.0,81,61,41,30.19,30.09,29,16,33,0.00
2013-3-15,69.0,65.0,59.0,61.0,54.0,47.0,82,68,52,30.24,30.13,27,17,31,0.00
2013-3-16,71.0,68.4,65.0,60.0,58.4,57.0,82,71,61,30.18,30.08,17,11,21,0.00
2013-3-17,75.0,72.5,71.0,67.0,63.4,60.0,82,73,66,30.11,29.99,18,13,23,0.00
2013-3-18,77.0,74.8,73.0,73.0,70.4,67.0,95,86,81,30.05,29.94,25,12,28,0.00
2013-3-19,74.0,71.8,67.0,73.0,68.9,66.0,97,91,80,30.01,29.91,21,6,29,0.38
2013-3-20,78.0,72.2,69.0,71.0,68.1,63.0,94,87,76,29.98,29.83,18,6,28,0.06
2013-3-21,75.0,70.4,68.0,67.0,63.9,62.0,92,80,68,29.94,29.83,19,6,21,0.00
2013-3-22,71.0,71.0,71.0,66.0,64.7,64.0,83,81,79,29.93,29.88,6,2,7,0.00
2013-4-1,81.0,77.5,73.0,75.0,73.2,71.0,94,87,81,30.05,29.96,10,4,15,0.00
2013-4-2,81.0,75.4,72.0,71.0,69.5,67.0,94,82,65,30.09,29.99,10,5,11,0.00
2013-4-3,78.0,76.4,75.0,74.0,71.7,68.0,89,86,80,30.05,29.96,20,13,23,0.00
2013-4-4,81.0,77.7,76.0,76.0,74.1,72.0,94,89,84,30.03,29.91,17,11,21,0.00
2013-4-5,77.0,71.8,65.0,75.0,68.5,64.0,98,90,73,29.97,29.80,26,11,35,0.72
2013-4-6,75.0,69.1,65.0,69.0,62.7,59.0,90,80,70,30.06,29.93,26,13,30,0.37
2013-4-7,76.0,74.9,74.0,69.0,67.9,66.0,83,79,74,30.09,29.97,26,21,30,0.01
2013-4-8,77.0,75.7,75.0,71.0,69.3,68.0,84,80,76,30.09,29.99,24,21,28,0.01
2013-4-9,78.0,76.7,75.0,73.0,71.0,68.0,87,83,78,30.10,30.01,29,20,33,0.00
2013-4-10,83.0,78.9,76.0,77.0,74.4,72.0,91,86,81,30.07,29.95,25,16,30,0.00
2013-4-11,78.0,78.0,78.0,74.0,74.0,74.0,89,88,87,29.98,29.91,27,22,31,0.00
2013-4-18,81.0,80.8,80.0,76.0,74.6,73.0,84,82,80,30.02,29.94,25,20,30,0.00
2013-4-19,83.0,80.9,80.0,77.0,75.2,73.0,88,83,78,30.02,29.93,26,18,30,0.00
2013-4-20,86.0,81.7,79.0,79.0,76.1,72.0,91,84,71,30.05,29.94,20,7,25,0.00
2013-4-21,87.0,80.5,77.0,78.0,73.8,70.0,90,80,71,30.05,29.96,18,7,24,0.00
2013-4-22,80.0,76.9,74.0,74.0,72.0,70.0,92,85,77,30.03,29.95,14,6,19,0.42
2013-4-24,78.0,78.0,78.0,69.0,67.5,67.0,74,71,69,30.09,30.06,29,26,34,0.00
2013-4-25,79.0,77.7,77.0,69.0,66.4,64.0,73,68,62,30.15,30.05,29,19,35,0.00
2013-4-26,78.0,77.0,75.0,68.0,66.2,64.0,75,69,65,30.19,30.08,25,18,31,0.00
2013-4-27,79.0,77.1,75.0,72.0,67.6,65.0,83,73,67,30.16,30.03,25,19,31,0.00
2013-4-28,78.0,75.9,74.0,72.0,67.1,-99.9,89,84,77,30.06,29.99,28,22,34,0.00
2013-5-1,81.0,81.0,81.0,75.0,75.0,75.0,83,82,82,29.92,29.92,14,14,19,0.00
2013-5-27,80.0,79.0,76.0,76.0,75.0,73.0,90,88,86,30.04,30.03,22,20,28,0.00
2013-5-28,81.0,79.1,76.0,76.0,74.3,72.0,93,85,77,30.05,29.98,33,20,40,0.00
2013-5-29,80.0,76.7,72.0,76.0,73.8,71.0,97,91,84,30.03,29.95,26,17,40,1.83
2013-5-30,80.0,76.5,74.0,76.0,74.3,72.0,98,93,85,30.01,29.93,30,14,37,1.32
2013-5-31,83.0,78.8,74.0,78.0,75.2,71.0,95,89,83,30.01,29.94,20,9,24,0.14
2013-6-1,82.0,78.9,74.0,79.0,75.5,73.0,98,90,81,30.01,29.92,20,6,26,2.18
2013-6-2,84.0,78.5,75.0,78.0,73.6,-99.9,98,89,75,29.98,29.90,21,5,27,2.13
2013-6-3,81.0,78.3,75.0,78.0,74.9,73.0,95,90,85,29.97,29.89,19,6,24,0.31
2013-6-6,86.0,81.4,74.0,81.0,77.6,72.0,98,89,83,29.86,29.79,25,12,37,0.62
2013-6-7,86.0,81.8,75.0,81.0,77.9,73.0,95,88,84,30.00,29.84,19,9,22,1.05
2013-6-8,85.0,82.2,79.0,81.0,78.2,76.0,93,88,83,30.06,29.95,21,12,0,0.00
2013-6-9,84.0,82.7,80.0,79.0,77.4,75.0,89,84,80,30.06,29.98,23,19,0,0.00
2013-6-10,84.0,82.8,82.0,79.0,78.0,77.0,89,86,83,30.04,29.95,21,18,0,0.00
2013-6-11,85.0,82.5,81.0,79.0,78.3,77.0,91,87,81,30.05,29.98,18,10,0,0.00
2013-6-14,86.0,83.9,81.0,77.0,76.0,74.0,87,78,71,29.97,29.90,10,6,13,0.00
2013-6-15,87.0,83.5,81.0,78.0,76.8,75.0,86,80,73,30.02,29.92,13,5,16,0.00
2013-6-16,85.0,83.8,83.0,78.0,77.3,75.0,85,81,76,30.05,29.98,20,13,25,0.00
2013-6-17,85.0,84.0,83.0,80.0,78.6,77.0,87,84,78,30.05,29.97,22,15,26,0.00
2013-6-18,86.0,84.1,83.0,80.0,78.9,78.0,89,85,79,30.03,29.97,19,13,22,0.00
2013-6-19,87.0,84.5,83.0,80.0,78.3,77.0,87,82,77,30.02,29.96,17,11,20,0.00
2013-6-20,86.0,84.7,83.0,79.0,77.5,75.0,84,79,75,30.05,29.98,18,12,23,0.00
2013-6-22,92.0,86.0,83.0,84.0,77.7,76.0,85,77,67,30.06,30.00,17,7,19,0.00
2013-6-23,88.0,83.0,80.0,79.0,77.3,75.0,90,83,71,30.09,30.00,13,7,19,0.02
2013-6-24,91.0,83.8,80.0,81.0,77.0,75.0,88,80,71,30.12,30.03,14,10,24,0.01
2013-6-25,91.0,83.1,80.0,81.0,77.7,76.0,89,84,72,30.08,29.99,14,8,20,0.01
2013-6-26,93.0,84.3,81.0,82.0,77.8,76.0,88,81,69,30.04,29.97,20,10,24,0.01
2013-6-27,86.0,83.4,81.0,79.0,77.2,73.0,86,82,73,30.02,29.93,20,10,25,0.00
2013-6-28,88.0,84.8,82.0,79.0,77.4,76.0,84,78,72,29.97,29.85,12,6,18,0.00
2013-6-29,95.0,86.1,80.0,82.0,78.3,75.0,89,78,65,29.91,29.83,18,6,28,0.00
2013-6-30,92.0,85.0,81.0,80.0,77.3,74.0,85,78,66,29.93,29.84,13,8,27,0.00
2013-7-1,89.0,84.3,82.0,80.0,77.4,74.0,85,80,72,30.00,29.88,14,5,23,0.00
2013-7-2,92.0,81.7,76.0,82.0,77.4,74.0,96,88,67,30.07,29.94,19,4,27,0.35
2013-7-3,88.0,81.8,77.0,81.0,77.5,74.0,96,87,77,30.08,30.00,10,5,18,0.32
2013-7-4,88.0,82.9,79.0,81.0,78.1,76.0,95,86,76,30.09,30.01,17,10,24,0.50
2013-7-5,82.0,79.9,76.0,80.0,76.6,74.0,96,90,84,30.09,30.00,17,6,25,0.63
2013-7-6,87.0,82.3,78.0,81.0,78.0,76.0,96,87,78,30.06,29.98,16,10,21,0.39
2013-7-7,89.0,83.4,80.0,81.0,77.4,75.0,89,83,73,30.04,29.98,16,10,23,0.02
2013-7-8,88.0,82.8,80.0,78.0,76.0,74.0,87,80,70,30.10,30.02,19,9,25,0.02
2013-7-9,85.0,81.7,80.0,78.0,75.4,73.0,90,82,74,30.11,30.02,9,2,13,0.33
2013-7-10,90.0,81.6,77.0,80.0,72.7,-99.9,92,78,67,30.05,29.97,9,2,13,0.02
2013-7-11,81.0,80.5,80.0,76.0,75.5,75.0,86,85,83,30.02,29.96,4,1,8,0.01
2013-7-16,82.0,79.1,75.0,79.0,75.4,73.0,96,89,82,30.06,29.99,21,11,31,0.35
2013-7-17,80.0,77.2,74.0,76.0,74.5,72.0,96,92,84,30.09,29.99,16,5,22,0.51
2013-7-18,82.0,76.8,72.0,79.0,74.6,71.0,97,93,87,30.08,30.00,20,5,24,0.66
2013-7-19,87.0,81.5,78.0,81.0,78.3,76.0,95,91,82,30.09,30.00,13,8,18,0.01
2013-7-20,91.0,83.9,79.0,84.0,78.2,-99.9,95,85,75,30.08,29.99,10,3,16,0.09
2013-7-21,93.0,84.7,81.0,84.0,79.3,77.0,93,85,72,30.11,30.03,11,4,15,0.01
2013-7-22,92.0,83.9,81.0,81.0,77.7,76.0,89,82,69,30.12,30.04,13,5,16,0.00
2013-7-23,92.0,84.8,81.0,82.0,78.0,75.0,90,81,68,30.09,29.98,13,3,16,0.00
2013-7-24,94.0,85.3,79.0,82.0,77.2,75.0,90,77,66,30.02,29.93,7,2,11,0.00
2013-7-25,89.0,84.6,79.0,78.0,76.1,74.0,87,76,67,30.03,29.92,8,2,14,0.00
2013-7-26,93.0,85.2,80.0,80.0,77.2,75.0,88,77,63,30.03,29.97,11,3,18,0.00
2013-7-27,94.0,86.1,81.0,83.0,78.4,75.0,90,78,67,30.01,29.93,6,2,11,0.02
2013-7-28,93.0,84.3,78.0,83.0,78.0,74.0,95,83,68,30.05,29.93,6,1,10,0.24
2013-7-29,92.0,85.1,82.0,82.0,78.4,76.0,86,80,68,30.09,29.98,15,5,19,0.00
2013-7-30,89.0,84.1,80.0,82.0,78.8,76.0,93,84,76,30.11,30.04,17,7,25,0.04
2013-7-31,90.0,85.3,81.0,81.0,78.8,76.0,90,81,71,30.07,29.95,15,9,22,0.08
2013-8-1,92.0,85.3,82.0,80.0,77.7,76.0,85,78,67,30.01,29.90,20,7,24,0.08
2013-8-2,94.0,85.2,79.0,82.0,77.6,74.0,89,79,66,30.04,29.91,8,1,10,0.00
2013-8-3,92.0,85.2,82.0,82.0,78.6,77.0,86,81,69,30.09,30.01,7,4,13,0.00
2013-8-4,91.0,87.3,82.0,82.0,78.5,76.0,87,76,64,30.08,29.99,4,0,7,0.00
2013-8-5,91.0,85.7,80.0,79.0,76.7,74.0,87,75,60,30.04,29.95,5,1,9,0.00
2013-8-6,91.0,81.8,77.0,83.0,77.8,75.0,96,88,74,29.97,29.88,15,3,24,0.70
2013-8-7,92.0,84.9,81.0,82.0,78.3,76.0,88,81,71,29.94,29.87,12,4,21,0.13
2013-8-8,92.0,85.7,83.0,82.0,78.5,76.0,85,79,69,29.96,29.87,16,9,26,0.03
2013-8-9,88.0,82.7,80.0,79.0,76.2,74.0,86,81,73,29.98,29.90,18,8,25,0.03
2013-8-11,84.0,83.3,83.0,79.0,78.3,78.0,86,85,84,30.06,30.04,10,8,18,0.00
2013-8-12,90.0,84.4,82.0,81.0,77.7,75.0,85,80,73,30.06,29.96,10,5,19,0.00
2013-8-13,91.0,83.8,81.0,82.0,75.2,-99.9,85,78,71,30.01,29.93,14,8,19,0.00
2013-8-14,91.0,82.1,82.0,82.0,71.5,-99.9,85,78,71,29.99,29.90,15,6,22,0.00
2013-8-21,87.0,82.9,79.0,81.0,78.5,76.0,93,87,80,30.02,29.96,18,8,25,0.26
2013-8-22,88.0,82.7,76.0,82.0,79.0,74.0,96,89,82,30.01,29.90,15,10,28,0.44
2013-8-23,91.0,85.0,81.0,82.0,79.0,76.0,89,83,74,29.97,29.90,11,6,18,0.06
2013-8-24,92.0,85.8,81.0,82.0,78.9,75.0,87,80,70,30.05,29.94,10,4,15,0.00
2013-8-25,87.0,82.5,81.0,80.0,75.0,-99.9,88,81,76,30.09,29.98,11,3,15,0.03
2013-8-26,83.0,80.7,76.0,79.0,76.3,73.0,94,87,82,30.09,29.97,14,4,24,0.25
2013-8-27,81.0,79.9,76.0,76.0,74.3,72.0,92,83,77,30.01,29.94,13,5,19,0.11
2013-8-28,85.0,82.4,80.0,80.0,77.1,75.0,90,84,78,30.00,29.93,8,2,14,2.31
2013-8-30,87.0,84.4,81.0,81.0,78.0,76.0,87,82,76,29.98,29.90,6,2,10,0.00
2013-8-31,91.0,83.7,78.0,81.0,77.5,74.0,90,82,69,29.96,29.89,10,2,14,0.00
2013-9-1,88.0,80.0,79.0,80.0,71.5,-99.9,91,82,76,29.96,29.90,9,2,12,0.03
2013-9-6,89.0,85.2,82.0,81.0,79.1,77.0,89,82,75,29.99,29.88,14,8,19,0.01
2013-9-7,85.0,81.5,79.0,78.0,75.7,73.0,91,83,71,29.98,29.86,12,6,29,0.14
2013-9-8,87.0,81.5,80.0,79.0,73.9,-99.9,91,81,76,29.91,29.83,8,3,12,0.00
2013-9-9,88.0,84.0,81.0,81.0,77.5,76.0,85,81,75,29.95,29.85,12,5,16,0.00
2013-9-10,88.0,84.2,81.0,81.0,77.9,76.0,86,82,75,29.98,29.90,16,8,21,0.00
2013-9-11,89.0,83.5,80.0,82.0,78.1,76.0,93,84,76,29.98,29.91,18,6,25,0.39
2013-9-12,86.0,82.6,78.0,80.0,77.6,75.0,94,85,79,29.97,29.85,8,4,15,0.59
2013-9-13,89.0,84.1,81.0,80.0,77.4,76.0,85,81,73,29.87,29.78,6,3,11,0.00
2013-9-14,89.0,84.3,81.0,81.0,77.7,75.0,86,81,74,29.93,29.80,14,5,19,0.00
2013-9-15,85.0,81.2,81.0,81.0,74.7,-99.9,91,85,84,29.98,29.87,13,7,20,0.00
2013-9-16,83.0,79.6,74.0,79.0,76.6,72.0,96,91,82,30.04,29.91,14,7,25,0.72
2013-9-17,82.0,80.3,78.0,78.0,77.2,75.0,95,90,87,29.99,29.88,14,5,21,0.13
2013-9-18,81.0,81.0,81.0,79.0,78.2,78.0,94,92,90,29.93,29.87,10,3,13,0.05
2013-9-19,86.0,81.8,79.0,80.0,77.6,76.0,93,87,78,29.97,29.89,10,5,15,0.00
2013-9-20,86.0,81.9,78.0,78.0,75.3,71.0,91,81,68,29.97,29.86,21,11,26,0.02
2013-9-21,87.0,82.5,80.0,78.0,76.6,73.0,89,83,75,29.87,29.75,13,3,18,0.18
2013-10-2,86.0,81.1,77.0,81.0,77.6,75.0,96,90,81,29.98,29.91,12,5,18,0.58
2013-10-3,88.0,83.5,80.0,81.0,78.4,76.0,92,85,78,30.00,29.90,13,7,18,0.06
2013-10-4,87.0,83.5,81.0,79.0,77.2,75.0,88,82,76,30.00,29.93,12,6,18,0.06
2013-10-5,84.0,82.0,81.0,77.0,75.1,73.0,86,80,77,29.98,29.89,10,4,14,0.00
2013-10-6,87.0,82.8,80.0,78.0,74.6,72.0,85,77,71,29.94,29.85,6,2,12,0.00
2013-10-7,88.0,83.3,80.0,79.0,76.8,75.0,86,81,74,29.90,29.81,13,5,19,0.00
2013-10-8,88.0,83.0,81.0,79.0,77.1,75.0,88,82,74,29.93,29.83,13,4,21,0.00
2013-10-9,84.0,81.4,77.0,77.0,74.3,69.0,90,80,63,29.96,29.89,5,1,9,0.00
2013-10-10,85.0,82.0,79.0,78.0,76.4,74.0,90,83,78,29.97,29.90,15,5,21,0.11
2013-10-13,85.0,79.6,79.0,75.0,68.9,-99.9,77,73,69,30.01,29.92,8,4,14,0.00
2013-10-14,83.0,79.9,77.0,73.0,71.6,70.0,84,76,68,29.97,29.86,10,6,16,0.00
2013-10-15,83.0,79.9,77.0,74.0,72.5,70.0,85,78,66,29.92,29.84,10,5,15,0.00
2013-10-16,83.0,80.1,76.0,75.0,73.8,73.0,89,82,72,29.92,29.85,12,4,19,0.02
2013-10-17,85.0,80.2,75.0,77.0,75.0,72.0,94,85,77,29.93,29.85,8,2,12,0.12
2013-10-18,86.0,81.7,80.0,79.0,76.1,74.0,86,83,79,29.93,29.86,13,6,18,0.00
2013-10-19,86.0,81.6,80.0,80.0,77.1,76.0,89,87,81,29.93,29.86,13,5,19,0.00
2013-10-21,89.0,85.3,81.0,81.0,78.3,76.0,86,80,75,29.98,29.88,5,1,10,0.00
2013-10-22,89.0,83.5,80.0,80.0,77.5,75.0,88,83,73,29.94,29.83,8,2,12,0.00
2013-10-23,86.0,82.6,81.0,78.0,77.0,76.0,88,83,76,29.92,29.80,12,2,20,0.00
2013-10-24,82.0,79.9,78.0,76.0,74.3,72.0,89,83,78,30.01,29.88,18,12,28,0.00
2013-10-25,80.0,78.7,77.0,70.0,69.3,68.0,79,73,70,30.08,30.04,21,15,28,0.00
2013-10-26,81.0,77.8,76.0,72.0,70.1,68.0,84,78,71,30.08,30.01,14,10,22,0.00
2013-10-27,81.0,76.5,75.0,72.0,67.5,-99.9,83,76,71,30.05,29.97,12,8,20,0.00
2013-10-28,81.0,77.3,76.0,74.0,69.4,-99.9,86,80,73,30.09,29.99,11,7,16,0.00
2013-10-29,82.0,78.7,76.0,73.0,72.3,71.0,88,81,72,30.13,30.03,12,7,16,0.00
2013-10-30,83.0,79.3,77.0,74.0,71.7,70.0,85,77,72,30.11,30.02,15,7,24,0.00
2013-11-4,80.0,76.3,73.0,74.0,70.2,67.0,95,82,68,30.01,29.92,20,12,26,0.38
2013-11-5,79.0,77.1,75.0,75.0,73.7,72.0,94,89,86,30.00,29.92,18,10,27,0.24
2013-11-6,80.0,78.2,76.0,76.0,74.7,73.0,93,89,85,30.00,29.93,15,7,27,0.06
2013-11-7,80.0,77.5,76.0,74.0,73.5,72.0,91,87,79,29.99,29.89,10,6,15,0.01
2013-11-8,80.0,77.5,74.0,75.0,73.1,70.0,90,86,82,29.98,29.90,16,11,24,0.00
2013-11-9,83.0,77.1,76.0,77.0,72.3,-99.9,93,88,83,30.04,29.95,13,6,19,0.43
2013-11-10,80.0,77.7,75.0,77.0,75.4,73.0,96,93,89,30.06,29.98,13,6,21,1.44
2013-11-11,78.0,78.0,78.0,75.0,75.0,75.0,92,92,92,30.02,30.02,9,9,14,0.00
2013-11-14,74.0,74.0,74.0,68.0,68.0,68.0,81,81,81,30.12,30.12,11,10,20,0.00
2013-12-3,79.0,72.9,67.0,71.0,67.7,64.0,94,84,74,29.98,29.88,6,1,10,0.00
2013-12-4,81.0,76.0,73.0,74.0,70.8,68.0,90,84,77,30.05,29.95,8,3,11,0.00
2013-12-5,81.0,77.1,74.0,73.0,71.2,69.0,87,83,76,30.12,30.02,13,8,19,0.00
2013-12-6,81.0,77.8,76.0,74.0,72.2,70.0,89,83,78,30.14,30.03,15,10,22,0.00
2013-12-7,80.0,75.8,75.0,75.0,69.4,-99.9,90,84,81,30.16,30.09,10,5,20,0.00
2013-12-8,80.0,77.5,76.0,74.0,72.0,70.0,92,84,77,30.16,30.07,16,11,23,0.01
2013-12-9,79.0,78.5,77.0,74.0,72.1,70.0,87,81,73,30.14,30.08,24,20,33,0.00
2013-12-15,83.0,79.1,76.0,78.0,75.2,73.0,91,88,83,30.04,29.93,16,8,21,0.00
2013-12-16,76.0,72.8,70.0,73.0,68.1,65.0,92,85,75,30.12,30.01,23,14,27,0.00
2013-12-17,76.0,71.3,68.0,71.0,67.2,65.0,92,87,81,30.14,30.04,20,15,24,0.00
2013-12-18,74.0,71.7,69.0,68.0,64.5,61.0,85,78,67,30.18,30.09,22,19,27,0.00
2013-12-19,76.0,72.7,68.0,72.0,66.8,64.0,88,82,72,30.17,30.08,26,19,30,0.00
2013-12-20,79.0,77.6,76.0,74.0,72.8,71.0,89,85,83,30.12,30.04,28,22,32,0.00
2013-12-21,79.0,78.2,78.0,74.0,73.2,72.0,87,85,82,30.09,30.03,25,21,29,0.00
2013-12-23,80.0,78.8,78.0,75.0,74.2,73.0,89,86,83,30.14,30.07,22,14,26,0.00
2013-12-24,79.0,76.3,70.0,75.0,72.1,66.0,92,87,82,30.14,30.03,30,10,34,0.00
2013-12-25,76.0,72.0,69.0,73.0,69.5,66.0,97,91,86,30.10,30.03,28,20,33,0.07
2013-12-26,78.0,75.1,72.0,73.0,71.6,70.0,96,89,81,30.11,30.01,22,14,26,0.03
2013-12-27,78.0,77.3,75.0,75.0,73.5,72.0,94,89,85,30.12,30.03,25,17,29,0.03
2013-12-28,79.0,77.2,78.0,75.0,71.1,-99.9,91,85,84,30.11,29.99,27,21,35,0.00
2013-12-29,80.0,79.0,78.0,76.0,75.0,74.0,90,88,86,30.03,29.93,21,13,24,0.00